Location: *
(44.3925°N, 5.4708°E)
Time: 08:33:04
(UTC+00:00)

COSMO-SKYMED 1 - Pass Details

Date: 18 September 2019
Orbit: 621 x 623 km, 97.9° (Epoch: 18 October)

Event Time Altitude Azimuth Distance (km) Brightness Sun altitude
Rises 18:08:25 0° 8° (N) 2,913 6.0 -5.2°
Reaches altitude 10° 18:10:39 10° 4° (N) 2,002 5.2 -5.6°
Maximum altitude 18:14:54 55° 287° (WNW) 748 3.5 -6.3°
Drops below altitude 10° 18:19:08 10° 210° (SSW) 1,986 5.4 -7.1°
Sets 18:21:20 0° 206° (SSW) 2,887 6.2 -7.5°
